Location: ???????
(55.3754°N, 39.3545°E)
Time: 07:52:24
(UTC+00:00)

SeaSat 1 - Pass Details

Date: 14 April 2026
Orbit: 736 x 740 km, 108.0° (Epoch: 9 May)

Event Time Altitude Azimuth Distance (km) Brightness Sun altitude
Exits shadow 18:03:25 14° 98° (E) 1,991 4.1 -12.9°
Maximum altitude 18:07:02 33° 39° (NE) 1,225 3.6 -13.3°
Drops below altitude 10° 18:11:25 10° 336° (NNW) 2,263 6.0 -13.8°
Sets 18:13:51 0° 328° (NNW) 3,189 7.3 -14.1°
